Tracking 18980 objects as of 22-Feb-2018
HD Live streaming from Space Station
objects crossing your sky now

COSMOS 1437

Track COSMOS 1437 now!
10-day predictions
COSMOS 1437 is classified as:


NORAD ID: 13770
Int'l Code: 1983-003A
Perigee: 406.0 km
Apogee: 415.1 km
Inclination: 81.2 °
Period: 92.6 minutes
Semi major axis: 6781 km
RCS: 7.8902 m2 (large)
Launch date: January 20, 1983
Source: Commonwealth of Independent States (former USSR) (CIS)
Launch site: PLESETSK MISSILE AND SPACE COMPLEX (PKMTR)
aabbcc
Your satellite tracking list
Your tracking list is empty




NASA's NSSDC Master Catalog

Two Line Element Set (TLE):
1 13770U 83003A   18052.84985201 +.00005143 +00000-0 +77364-4 0  9999
2 13770 081.1568 201.1500 0006762 097.9315 262.2702 15.54566347924993
Source of the keplerian elements: AFSPC